Time,TemperatureF,DewpointF,PressureIn,WindDirection,WindDirectionDegrees,WindSpeedMPH,WindSpeedGustMPH,Humidity,HourlyPrecipIn,Conditions,Clouds,dailyrainin,SoftwareType,DateUTC
2013-05-07 00:06:00,50.3,45.6,30.24,South,175,0.0,0.0,84,0.00,,,0.00,Wunderground v.1.15,2013-05-07 04:06:00,
2013-05-07 00:11:00,50.1,45.5,30.24,South,175,0.0,0.0,84,0.00,,,0.00,Wunderground v.1.15,2013-05-07 04:11:00,
2013-05-07 00:16:00,50.0,45.4,30.24,South,175,0.0,0.0,84,0.00,,,0.00,Wunderground v.1.15,2013-05-07 04:16:00,
2013-05-07 00:21:00,49.9,45.3,30.24,South,175,0.0,0.0,84,0.00,,,0.00,Wunderground v.1.15,2013-05-07 04:21:00,
2013-05-07 00:27:00,49.7,45.1,30.24,South,175,0.0,0.0,84,0.00,,,0.00,Wunderground v.1.15,2013-05-07 04:27:00,
2013-05-07 00:33:00,49.5,45.2,30.24,South,175,0.0,0.0,85,0.00,,,0.00,Wunderground v.1.15,2013-05-07 04:33:00,
2013-05-07 00:38:00,49.3,45.0,30.24,South,175,0.0,0.0,85,0.00,,,0.00,Wunderground v.1.15,2013-05-07 04:38:00,
2013-05-07 00:43:00,49.2,44.9,30.24,South,175,0.0,0.0,85,0.00,,,0.00,Wunderground v.1.15,2013-05-07 04:43:00,
2013-05-07 00:48:00,49.1,44.8,30.24,South,175,0.0,0.0,85,0.00,,,0.00,Wunderground v.1.15,2013-05-07 04:48:00,
2013-05-07 00:54:00,49.0,44.7,30.24,South,175,0.0,0.0,85,0.00,,,0.00,Wunderground v.1.15,2013-05-07 04:54:00,
2013-05-07 00:59:00,48.9,44.6,30.23,South,175,0.0,0.0,85,0.00,,,0.00,Wunderground v.1.15,2013-05-07 04:59:00,
2013-05-07 01:04:00,48.8,44.5,30.23,South,175,0.0,0.0,85,0.00,,,0.00,Wunderground v.1.15,2013-05-07 05:04:00,
2013-05-07 01:09:00,48.7,44.4,30.23,South,175,0.0,0.0,85,0.00,,,0.00,Wunderground v.1.15,2013-05-07 05:09:00,
2013-05-07 01:14:00,48.5,44.2,30.23,South,175,0.0,0.0,85,0.00,,,0.00,Wunderground v.1.15,2013-05-07 05:14:00,
2013-05-07 01:20:00,48.3,44.3,30.23,South,175,0.0,0.0,86,0.00,,,0.00,Wunderground v.1.15,2013-05-07 05:20:00,
2013-05-07 01:25:00,48.2,44.2,30.23,South,175,0.0,0.0,86,0.00,,,0.00,Wunderground v.1.15,2013-05-07 05:25:00,
2013-05-07 01:30:00,48.1,44.1,30.23,South,175,0.0,0.0,86,0.00,,,0.00,Wunderground v.1.15,2013-05-07 05:30:00,
2013-05-07 01:35:00,48.0,44.0,30.23,South,175,0.0,0.0,86,0.00,,,0.00,Wunderground v.1.15,2013-05-07 05:35:00,
2013-05-07 01:40:00,47.8,43.8,30.23,South,175,0.0,0.0,86,0.00,,,0.00,Wunderground v.1.15,2013-05-07 05:40:00,
2013-05-07 01:45:00,47.6,43.6,30.23,South,175,0.0,0.0,86,0.00,,,0.00,Wunderground v.1.15,2013-05-07 05:45:00,
2013-05-07 01:50:00,47.2,43.2,30.22,South,175,0.0,0.0,86,0.00,,,0.00,Wunderground v.1.15,2013-05-07 05:50:00,
2013-05-07 01:56:00,47.1,43.1,30.22,South,175,0.0,0.0,86,0.00,,,0.00,Wunderground v.1.15,2013-05-07 05:56:00,
2013-05-07 02:01:00,46.8,43.1,30.23,South,175,0.0,0.0,87,0.00,,,0.00,Wunderground v.1.15,2013-05-07 06:01:00,
2013-05-07 02:06:00,46.7,43.0,30.23,South,175,0.0,0.0,87,0.00,,,0.00,Wunderground v.1.15,2013-05-07 06:06:00,
2013-05-07 02:12:00,46.6,42.9,30.23,South,175,0.0,0.0,87,0.00,,,0.00,Wunderground v.1.15,2013-05-07 06:12:00,
2013-05-07 02:17:00,46.5,42.8,30.23,South,175,0.0,0.0,87,0.00,,,0.00,Wunderground v.1.15,2013-05-07 06:17:00,
2013-05-07 02:22:00,46.4,42.7,30.23,South,175,0.0,0.0,87,0.00,,,0.00,Wunderground v.1.15,2013-05-07 06:22:00,
2013-05-07 02:27:00,46.3,42.6,30.22,South,175,0.0,0.0,87,0.00,,,0.00,Wunderground v.1.15,2013-05-07 06:27:00,
2013-05-07 02:32:00,46.2,42.5,30.22,South,175,0.0,0.0,87,0.00,,,0.00,Wunderground v.1.15,2013-05-07 06:32:00,
2013-05-07 02:37:00,46.1,42.4,30.22,South,175,0.0,0.0,87,0.00,,,0.00,Wunderground v.1.15,2013-05-07 06:37:00,
2013-05-07 02:42:00,46.0,42.3,30.22,South,175,0.0,0.0,87,0.00,,,0.00,Wunderground v.1.15,2013-05-07 06:42:00,
2013-05-07 02:47:00,45.8,42.2,30.22,South,175,0.0,0.0,87,0.00,,,0.00,Wunderground v.1.15,2013-05-07 06:47:00,
2013-05-07 02:52:00,45.7,42.1,30.22,South,175,0.0,0.0,87,0.00,,,0.00,Wunderground v.1.15,2013-05-07 06:52:00,
2013-05-07 02:57:00,45.6,42.0,30.22,South,175,0.0,0.0,87,0.00,,,0.00,Wunderground v.1.15,2013-05-07 06:57:00,
2013-05-07 03:02:00,45.4,41.8,30.22,South,175,0.0,0.0,87,0.00,,,0.00,Wunderground v.1.15,2013-05-07 07:02:00,
2013-05-07 03:07:00,45.3,41.7,30.22,South,175,0.0,0.0,87,0.00,,,0.00,Wunderground v.1.15,2013-05-07 07:07:00,
2013-05-07 03:12:00,45.2,41.6,30.22,South,175,0.0,0.0,87,0.00,,,0.00,Wunderground v.1.15,2013-05-07 07:12:00,
2013-05-07 03:17:00,45.0,41.7,30.22,South,175,0.0,0.0,88,0.00,,,0.00,Wunderground v.1.15,2013-05-07 07:17:00,
2013-05-07 03:22:00,45.0,41.4,30.22,South,175,0.0,0.0,87,0.00,,,0.00,Wunderground v.1.15,2013-05-07 07:22:00,
2013-05-07 03:27:00,44.9,41.3,30.22,South,175,0.0,0.0,87,0.00,,,0.00,Wunderground v.1.15,2013-05-07 07:27:00,
2013-05-07 03:32:00,44.7,41.1,30.22,South,175,0.0,0.0,87,0.00,,,0.00,Wunderground v.1.15,2013-05-07 07:32:00,
2013-05-07 03:37:00,44.6,41.3,30.22,South,175,0.0,0.0,88,0.00,,,0.00,Wunderground v.1.15,2013-05-07 07:37:00,
2013-05-07 03:42:00,44.6,41.3,30.22,South,175,0.0,0.0,88,0.00,,,0.00,Wunderground v.1.15,2013-05-07 07:42:00,
2013-05-07 03:47:00,44.5,41.2,30.22,South,175,0.0,0.0,88,0.00,,,0.00,Wunderground v.1.15,2013-05-07 07:47:00,
2013-05-07 03:52:00,44.4,41.1,30.22,South,175,0.0,0.0,88,0.00,,,0.00,Wunderground v.1.15,2013-05-07 07:52:00,
2013-05-07 03:57:00,44.3,41.0,30.22,South,175,0.0,0.0,88,0.00,,,0.00,Wunderground v.1.15,2013-05-07 07:57:00,
2013-05-07 04:02:00,44.2,40.9,30.22,South,175,0.0,0.0,88,0.00,,,0.00,Wunderground v.1.15,2013-05-07 08:02:00,
2013-05-07 04:07:00,44.2,40.9,30.22,South,175,0.0,0.0,88,0.00,,,0.00,Wunderground v.1.15,2013-05-07 08:07:00,
2013-05-07 04:12:00,47.9,43.9,30.22,South,175,0.0,0.0,86,0.00,,,0.00,Wunderground v.1.15,2013-05-07 08:12:00,
2013-05-07 04:17:00,48.6,44.6,30.22,South,175,0.0,0.0,86,0.00,,,0.00,Wunderground v.1.15,2013-05-07 08:17:00,
2013-05-07 04:23:00,53.2,49.1,30.22,South,175,0.0,0.0,86,0.00,,,0.00,Wunderground v.1.15,2013-05-07 08:23:00,
2013-05-07 04:28:00,50.7,46.7,30.22,South,175,0.0,0.0,86,0.00,,,0.00,Wunderground v.1.15,2013-05-07 08:28:00,
2013-05-07 04:33:00,47.6,44.2,30.22,South,175,0.0,0.0,88,0.00,,,0.00,Wunderground v.1.15,2013-05-07 08:33:00,
2013-05-07 04:38:00,46.7,43.0,30.22,South,175,0.0,0.0,87,0.00,,,0.00,Wunderground v.1.15,2013-05-07 08:38:00,
2013-05-07 04:43:00,45.9,42.2,30.22,South,175,0.0,0.0,87,0.00,,,0.00,Wunderground v.1.15,2013-05-07 08:43:00,
2013-05-07 04:48:00,44.7,41.1,30.22,South,175,0.0,0.0,87,0.00,,,0.00,Wunderground v.1.15,2013-05-07 08:48:00,
2013-05-07 04:53:00,44.0,40.4,30.22,South,175,0.0,0.0,87,0.00,,,0.00,Wunderground v.1.15,2013-05-07 08:53:00,
2013-05-07 04:58:00,43.6,40.3,30.22,South,175,0.0,0.0,88,0.00,,,0.00,Wunderground v.1.15,2013-05-07 08:58:00,
2013-05-07 05:03:00,43.5,39.9,30.22,South,175,0.0,0.0,87,0.00,,,0.00,Wunderground v.1.15,2013-05-07 09:03:00,
2013-05-07 05:08:00,43.3,39.7,30.22,South,175,0.0,0.0,87,0.00,,,0.00,Wunderground v.1.15,2013-05-07 09:08:00,
2013-05-07 05:13:00,43.1,39.8,30.22,South,175,0.0,0.0,88,0.00,,,0.00,Wunderground v.1.15,2013-05-07 09:13:00,
2013-05-07 05:18:00,43.0,39.4,30.22,South,175,0.0,0.0,87,0.00,,,0.00,Wunderground v.1.15,2013-05-07 09:18:00,
2013-05-07 05:23:00,45.7,42.1,30.22,South,175,0.0,0.0,87,0.00,,,0.00,Wunderground v.1.15,2013-05-07 09:23:00,
2013-05-07 05:28:00,50.4,46.7,30.22,South,175,0.0,0.0,87,0.00,,,0.00,Wunderground v.1.15,2013-05-07 09:28:00,
2013-05-07 05:33:00,50.4,46.7,30.22,South,175,0.0,0.0,87,0.00,,,0.00,Wunderground v.1.15,2013-05-07 09:33:00,
2013-05-07 05:38:00,56.6,52.8,30.22,South,175,0.0,0.0,87,0.00,,,0.00,Wunderground v.1.15,2013-05-07 09:38:00,
2013-05-07 05:43:00,56.7,52.9,30.22,South,175,0.0,0.0,87,0.00,,,0.00,Wunderground v.1.15,2013-05-07 09:43:00,
2013-05-07 05:48:00,49.9,46.2,30.22,South,175,0.0,0.0,87,0.00,,,0.00,Wunderground v.1.15,2013-05-07 09:48:00,
2013-05-07 05:53:00,46.5,43.1,30.22,South,175,0.0,0.0,88,0.00,,,0.00,Wunderground v.1.15,2013-05-07 09:53:00,
2013-05-07 05:58:00,44.8,41.5,30.23,South,175,0.0,0.0,88,0.00,,,0.00,Wunderground v.1.15,2013-05-07 09:58:00,
2013-05-07 06:03:00,43.8,40.5,30.23,South,175,0.0,0.0,88,0.00,,,0.00,Wunderground v.1.15,2013-05-07 10:03:00,
2013-05-07 06:08:00,43.1,39.8,30.23,South,175,0.0,0.0,88,0.00,,,0.00,Wunderground v.1.15,2013-05-07 10:08:00,
2013-05-07 06:13:00,42.8,39.2,30.23,South,175,0.0,0.0,87,0.00,,,0.00,Wunderground v.1.15,2013-05-07 10:13:00,
2013-05-07 06:18:00,42.9,39.6,30.23,South,175,0.0,0.0,88,0.00,,,0.00,Wunderground v.1.15,2013-05-07 10:18:00,
2013-05-07 06:23:00,43.0,39.7,30.23,South,175,0.0,0.0,88,0.00,,,0.00,Wunderground v.1.15,2013-05-07 10:23:00,
2013-05-07 06:29:00,43.1,39.5,30.23,South,175,0.0,0.0,87,0.00,,,0.00,Wunderground v.1.15,2013-05-07 10:29:00,
2013-05-07 06:34:00,43.2,39.6,30.23,South,175,0.0,0.0,87,0.00,,,0.00,Wunderground v.1.15,2013-05-07 10:34:00,
2013-05-07 06:39:00,43.3,39.7,30.23,South,175,0.0,0.0,87,0.00,,,0.00,Wunderground v.1.15,2013-05-07 10:39:00,
2013-05-07 06:44:00,43.4,39.8,30.23,South,175,0.0,0.0,87,0.00,,,0.00,Wunderground v.1.15,2013-05-07 10:44:00,
2013-05-07 06:49:00,43.7,40.1,30.23,South,175,0.0,0.0,87,0.00,,,0.00,Wunderground v.1.15,2013-05-07 10:49:00,
2013-05-07 06:54:00,44.0,40.4,30.23,South,175,0.0,0.0,87,0.00,,,0.00,Wunderground v.1.15,2013-05-07 10:54:00,
2013-05-07 06:59:00,45.4,41.8,30.23,South,175,0.0,0.0,87,0.00,,,0.00,Wunderground v.1.15,2013-05-07 10:59:00,
2013-05-07 07:04:00,49.1,45.4,30.23,South,175,0.0,0.0,87,0.00,,,0.00,Wunderground v.1.15,2013-05-07 11:04:00,
2013-05-07 07:09:00,48.6,44.9,30.23,South,175,0.0,0.0,87,0.00,,,0.00,Wunderground v.1.15,2013-05-07 11:09:00,
2013-05-07 07:14:00,47.5,43.8,30.23,South,175,0.0,0.0,87,0.00,,,0.00,Wunderground v.1.15,2013-05-07 11:14:00,
2013-05-07 07:19:00,47.5,43.8,30.23,South,175,0.0,0.0,87,0.00,,,0.00,Wunderground v.1.15,2013-05-07 11:19:00,
2013-05-07 07:24:00,48.1,44.4,30.23,South,175,0.0,0.0,87,0.00,,,0.00,Wunderground v.1.15,2013-05-07 11:24:00,
2013-05-07 07:29:00,48.8,45.1,30.23,South,175,0.0,0.0,87,0.00,,,0.00,Wunderground v.1.15,2013-05-07 11:29:00,
2013-05-07 07:34:00,49.6,46.2,30.23,South,175,0.0,0.0,88,0.00,,,0.00,Wunderground v.1.15,2013-05-07 11:34:00,
2013-05-07 07:39:00,50.4,47.0,30.23,South,175,0.0,0.0,88,0.00,,,0.00,Wunderground v.1.15,2013-05-07 11:39:00,
2013-05-07 07:44:00,51.4,47.7,30.23,South,175,0.0,0.0,87,0.00,,,0.00,Wunderground v.1.15,2013-05-07 11:44:00,
2013-05-07 07:49:00,52.5,47.8,30.23,South,175,0.0,0.0,84,0.00,,,0.00,Wunderground v.1.15,2013-05-07 11:49:00,
2013-05-07 07:54:00,53.7,48.0,30.23,South,175,0.0,0.0,81,0.00,,,0.00,Wunderground v.1.15,2013-05-07 11:54:00,
2013-05-07 07:59:00,55.3,48.9,30.24,South,175,0.0,0.0,79,0.00,,,0.00,Wunderground v.1.15,2013-05-07 11:59:00,
2013-05-07 08:04:00,57.0,49.9,30.24,South,175,0.0,0.0,77,0.00,,,0.00,Wunderground v.1.15,2013-05-07 12:04:00,
2013-05-07 08:09:00,58.4,49.8,30.24,South,175,0.0,0.0,73,0.00,,,0.00,Wunderground v.1.15,2013-05-07 12:09:00,
2013-05-07 08:14:00,59.7,50.3,30.23,South,175,0.0,0.0,71,0.00,,,0.00,Wunderground v.1.15,2013-05-07 12:14:00,
2013-05-07 08:19:00,60.2,49.6,30.23,South,175,1.0,1.0,68,0.00,,,0.00,Wunderground v.1.15,2013-05-07 12:19:00,
2013-05-07 08:24:00,60.0,49.0,30.23,South,175,0.0,1.0,67,0.00,,,0.00,Wunderground v.1.15,2013-05-07 12:24:00,
2013-05-07 08:29:00,60.2,49.6,30.23,SW,226,1.0,2.0,68,0.00,,,0.00,Wunderground v.1.15,2013-05-07 12:29:00,
2013-05-07 08:34:00,60.9,50.7,30.23,SW,226,1.0,1.0,69,0.00,,,0.00,Wunderground v.1.15,2013-05-07 12:34:00,
2013-05-07 08:39:00,61.8,50.3,30.23,SW,226,1.0,1.0,66,0.00,,,0.00,Wunderground v.1.15,2013-05-07 12:39:00,
2013-05-07 08:44:00,62.7,50.3,30.23,SW,226,0.0,1.0,64,0.00,,,0.00,Wunderground v.1.15,2013-05-07 12:44:00,
2013-05-07 08:49:00,63.0,49.8,30.23,SSW,202,0.0,3.0,62,0.00,,,0.00,Wunderground v.1.15,2013-05-07 12:49:00,
2013-05-07 08:54:00,63.2,50.4,30.23,SSW,202,0.0,2.0,63,0.00,,,0.00,Wunderground v.1.15,2013-05-07 12:54:00,
2013-05-07 08:59:00,63.4,51.0,30.23,SSW,200,0.0,3.0,64,0.00,,,0.00,Wunderground v.1.15,2013-05-07 12:59:00,
2013-05-07 09:04:00,63.5,51.1,30.23,South,171,1.0,4.0,64,0.00,,,0.00,Wunderground v.1.15,2013-05-07 13:04:00,
2013-05-07 09:09:00,63.5,50.2,30.23,SSE,167,1.0,4.0,62,0.00,,,0.00,Wunderground v.1.15,2013-05-07 13:09:00,
2013-05-07 09:15:00,64.3,50.6,30.23,SSE,167,2.0,3.0,61,0.00,,,0.00,Wunderground v.1.15,2013-05-07 13:15:00,
2013-05-07 09:19:00,64.5,50.3,30.23,SSE,167,2.0,3.0,60,0.00,,,0.00,Wunderground v.1.15,2013-05-07 13:19:00,
2013-05-07 09:24:00,64.6,50.4,30.23,SSE,167,4.0,4.0,60,0.00,,,0.00,Wunderground v.1.15,2013-05-07 13:24:00,
2013-05-07 09:29:00,64.6,50.4,30.22,SSE,167,0.0,4.0,60,0.00,,,0.00,Wunderground v.1.15,2013-05-07 13:29:00,
2013-05-07 09:35:00,64.5,50.3,30.23,SSE,167,1.0,4.0,60,0.00,,,0.00,Wunderground v.1.15,2013-05-07 13:35:00,
2013-05-07 09:39:00,64.5,50.7,30.23,SSE,167,1.0,4.0,61,0.00,,,0.00,Wunderground v.1.15,2013-05-07 13:39:00,
2013-05-07 09:45:00,65.1,51.3,30.22,ESE,109,4.0,4.0,61,0.00,,,0.00,Wunderground v.1.15,2013-05-07 13:45:00,
2013-05-07 09:50:00,65.2,51.4,30.22,ESE,103,1.0,4.0,61,0.00,,,0.00,Wunderground v.1.15,2013-05-07 13:50:00,
2013-05-07 09:55:00,65.6,50.9,30.22,SSE,155,0.0,3.0,59,0.00,,,0.00,Wunderground v.1.15,2013-05-07 13:55:00,
2013-05-07 10:00:00,66.0,50.8,30.22,SSE,164,0.0,3.0,58,0.00,,,0.00,Wunderground v.1.15,2013-05-07 14:00:00,
2013-05-07 10:05:00,66.3,50.6,30.22,SSW,200,2.0,4.0,57,0.00,,,0.00,Wunderground v.1.15,2013-05-07 14:05:00,
2013-05-07 10:10:00,66.7,51.5,30.22,South,169,0.0,4.0,58,0.00,,,0.00,Wunderground v.1.15,2013-05-07 14:10:00,
2013-05-07 10:15:00,66.9,51.2,30.22,South,191,5.0,6.0,57,0.00,,,0.00,Wunderground v.1.15,2013-05-07 14:15:00,
2013-05-07 10:20:00,67.2,51.0,30.22,East,83,1.0,6.0,56,0.00,,,0.00,Wunderground v.1.15,2013-05-07 14:20:00,
2013-05-07 10:25:00,67.5,51.2,30.22,ESE,103,1.0,5.0,56,0.00,,,0.00,Wunderground v.1.15,2013-05-07 14:25:00,
2013-05-07 10:30:00,67.9,51.6,30.22,SSE,159,1.0,7.0,56,0.00,,,0.00,Wunderground v.1.15,2013-05-07 14:30:00,
2013-05-07 10:35:00,67.8,51.0,30.23,South,182,1.0,6.0,55,0.00,,,0.00,Wunderground v.1.15,2013-05-07 14:35:00,
2013-05-07 10:40:00,67.7,51.9,30.22,ENE,67,4.0,6.0,57,0.00,,,0.00,Wunderground v.1.15,2013-05-07 14:40:00,
2013-05-07 10:45:00,68.1,51.8,30.22,SSE,148,0.0,7.0,56,0.00,,,0.00,Wunderground v.1.15,2013-05-07 14:45:00,
2013-05-07 10:50:00,68.2,51.9,30.22,ENE,61,2.0,2.0,56,0.00,,,0.00,Wunderground v.1.15,2013-05-07 14:50:00,
2013-05-07 10:55:00,68.5,52.2,30.22,South,180,5.0,6.0,56,0.00,,,0.00,Wunderground v.1.15,2013-05-07 14:55:00,
2013-05-07 11:00:00,68.8,52.5,30.22,SE,126,3.0,3.0,56,0.00,,,0.00,Wunderground v.1.15,2013-05-07 15:00:00,
2013-05-07 11:05:00,69.3,52.4,30.22,SSE,163,3.0,7.0,55,0.00,,,0.00,Wunderground v.1.15,2013-05-07 15:05:00,
2013-05-07 11:10:00,69.1,52.7,30.22,South,177,1.0,4.0,56,0.00,,,0.00,Wunderground v.1.15,2013-05-07 15:10:00,
2013-05-07 11:16:00,69.6,53.2,30.22,SSW,200,2.0,6.0,56,0.00,,,0.00,Wunderground v.1.15,2013-05-07 15:16:00,
2013-05-07 11:21:00,70.0,53.1,30.21,South,177,5.0,5.0,55,0.00,,,0.00,Wunderground v.1.15,2013-05-07 15:21:00,
2013-05-07 11:26:00,70.1,53.2,30.21,SSE,147,7.0,9.0,55,0.00,,,0.00,Wunderground v.1.15,2013-05-07 15:26:00,
2013-05-07 11:31:00,70.6,53.6,30.21,ESE,103,1.0,3.0,55,0.00,,,0.00,Wunderground v.1.15,2013-05-07 15:31:00,
2013-05-07 11:36:00,71.0,53.5,30.21,East,82,0.0,7.0,54,0.00,,,0.00,Wunderground v.1.15,2013-05-07 15:36:00,
2013-05-07 11:41:00,70.9,53.4,30.21,SSW,195,2.0,3.0,54,0.00,,,0.00,Wunderground v.1.15,2013-05-07 15:41:00,
2013-05-07 11:46:00,71.0,54.5,30.21,SE,144,6.0,8.0,56,0.00,,,0.00,Wunderground v.1.15,2013-05-07 15:46:00,
2013-05-07 11:51:00,70.7,53.7,30.21,SSW,193,3.0,5.0,55,0.00,,,0.00,Wunderground v.1.15,2013-05-07 15:51:00,
2013-05-07 11:56:00,70.0,54.1,30.20,SSE,160,3.0,10.0,57,0.00,,,0.00,Wunderground v.1.15,2013-05-07 15:56:00,
2013-05-07 12:01:00,70.4,54.0,30.20,ESE,117,4.0,4.0,56,0.00,,,0.00,Wunderground v.1.15,2013-05-07 16:01:00,
2013-05-07 12:06:00,70.9,53.9,30.20,South,175,4.0,7.0,55,0.00,,,0.00,Wunderground v.1.15,2013-05-07 16:06:00,
2013-05-07 12:11:00,71.8,54.3,30.20,SSE,165,2.0,3.0,54,0.00,,,0.00,Wunderground v.1.15,2013-05-07 16:11:00,
2013-05-07 12:16:00,72.0,53.4,30.20,SE,130,3.0,9.0,52,0.00,,,0.00,Wunderground v.1.15,2013-05-07 16:16:00,
2013-05-07 12:21:00,71.6,53.6,30.20,SSW,195,7.0,7.0,53,0.00,,,0.00,Wunderground v.1.15,2013-05-07 16:21:00,
2013-05-07 12:27:00,71.7,54.7,30.20,South,180,2.0,10.0,55,0.00,,,0.00,Wunderground v.1.15,2013-05-07 16:27:00,
2013-05-07 12:32:00,72.1,54.5,30.19,ESE,116,1.0,4.0,54,0.00,,,0.00,Wunderground v.1.15,2013-05-07 16:32:00,
2013-05-07 12:36:00,72.7,54.6,30.19,SSE,162,1.0,7.0,53,0.00,,,0.00,Wunderground v.1.15,2013-05-07 16:36:00,
2013-05-07 12:42:00,73.7,55.5,30.19,South,173,2.0,4.0,53,0.00,,,0.00,Wunderground v.1.15,2013-05-07 16:42:00,
2013-05-07 12:47:00,73.2,54.0,30.19,SSE,165,5.0,10.0,51,0.00,,,0.00,Wunderground v.1.15,2013-05-07 16:47:00,
2013-05-07 12:52:00,72.2,54.6,30.19,SSE,163,3.0,6.0,54,0.00,,,0.00,Wunderground v.1.15,2013-05-07 16:52:00,
2013-05-07 12:57:00,71.9,53.8,30.19,SE,128,3.0,9.0,53,0.00,,,0.00,Wunderground v.1.15,2013-05-07 16:57:00,
2013-05-07 13:02:00,72.3,54.2,30.19,ESE,107,5.0,6.0,53,0.00,,,0.00,Wunderground v.1.15,2013-05-07 17:02:00,
2013-05-07 13:07:00,72.9,54.8,30.19,East,79,2.0,9.0,53,0.00,,,0.00,Wunderground v.1.15,2013-05-07 17:07:00,
2013-05-07 13:12:00,73.1,54.4,30.18,SSE,153,2.0,10.0,52,0.00,,,0.00,Wunderground v.1.15,2013-05-07 17:12:00,
2013-05-07 13:17:00,73.7,55.5,30.18,East,90,3.0,10.0,53,0.00,,,0.00,Wunderground v.1.15,2013-05-07 17:17:00,
2013-05-07 13:22:00,73.8,54.5,30.18,South,174,2.0,5.0,51,0.00,,,0.00,Wunderground v.1.15,2013-05-07 17:22:00,
2013-05-07 13:27:00,73.0,54.3,30.18,ESE,106,4.0,7.0,52,0.00,,,0.00,Wunderground v.1.15,2013-05-07 17:27:00,
2013-05-07 13:32:00,72.3,54.2,30.18,SE,126,4.0,4.0,53,0.00,,,0.00,Wunderground v.1.15,2013-05-07 17:32:00,
2013-05-07 13:37:00,72.7,54.6,30.18,SW,229,6.0,8.0,53,0.00,,,0.00,Wunderground v.1.15,2013-05-07 17:37:00,
2013-05-07 13:42:00,72.4,54.3,30.18,SE,145,2.0,8.0,53,0.00,,,0.00,Wunderground v.1.15,2013-05-07 17:42:00,
2013-05-07 13:47:00,72.9,55.3,30.18,SSW,202,6.0,8.0,54,0.00,,,0.00,Wunderground v.1.15,2013-05-07 17:47:00,
2013-05-07 13:52:00,73.3,54.6,30.18,SE,137,4.0,9.0,52,0.00,,,0.00,Wunderground v.1.15,2013-05-07 17:52:00,
2013-05-07 13:57:00,73.2,54.0,30.18,SW,215,2.0,9.0,51,0.00,,,0.00,Wunderground v.1.15,2013-05-07 17:57:00,
2013-05-07 14:02:00,73.0,53.8,30.17,SE,132,1.0,4.0,51,0.00,,,0.00,Wunderground v.1.15,2013-05-07 18:02:00,
2013-05-07 14:07:00,72.9,54.2,30.17,South,170,3.0,6.0,52,0.00,,,0.00,Wunderground v.1.15,2013-05-07 18:07:00,
2013-05-07 14:12:00,72.5,53.9,30.17,South,181,2.0,7.0,52,0.00,,,0.00,Wunderground v.1.15,2013-05-07 18:12:00,
2013-05-07 14:17:00,73.1,53.9,30.17,SE,146,5.0,8.0,51,0.00,,,0.00,Wunderground v.1.15,2013-05-07 18:17:00,
2013-05-07 14:22:00,73.0,54.3,30.16,WSW,237,2.0,6.0,52,0.00,,,0.00,Wunderground v.1.15,2013-05-07 18:22:00,
2013-05-07 14:27:00,72.8,54.7,30.16,South,173,3.0,8.0,53,0.00,,,0.00,Wunderground v.1.15,2013-05-07 18:27:00,
2013-05-07 14:32:00,72.2,54.1,30.16,East,87,3.0,7.0,53,0.00,,,0.00,Wunderground v.1.15,2013-05-07 18:32:00,
2013-05-07 14:37:00,72.0,54.9,30.16,South,190,6.0,10.0,55,0.00,,,0.00,Wunderground v.1.15,2013-05-07 18:37:00,
2013-05-07 14:42:00,72.1,55.5,30.16,SSE,155,4.0,8.0,56,0.00,,,0.00,Wunderground v.1.15,2013-05-07 18:42:00,
2013-05-07 14:47:00,72.5,55.9,30.16,South,175,7.0,8.0,56,0.00,,,0.00,Wunderground v.1.15,2013-05-07 18:47:00,
2013-05-07 14:52:00,73.5,55.8,30.15,SSE,162,3.0,7.0,54,0.00,,,0.00,Wunderground v.1.15,2013-05-07 18:52:00,
2013-05-07 14:57:00,73.8,56.1,30.15,SSE,148,4.0,10.0,54,0.00,,,0.00,Wunderground v.1.15,2013-05-07 18:57:00,
2013-05-07 15:02:00,73.9,56.7,30.15,SSE,166,2.0,4.0,55,0.00,,,0.00,Wunderground v.1.15,2013-05-07 19:02:00,
2013-05-07 15:07:00,74.7,55.4,30.15,South,176,3.0,9.0,51,0.00,,,0.00,Wunderground v.1.15,2013-05-07 19:07:00,
2013-05-07 15:13:00,74.2,56.0,30.15,SSE,164,4.0,9.0,53,0.00,,,0.00,Wunderground v.1.15,2013-05-07 19:13:00,
2013-05-07 15:18:00,74.4,56.2,30.15,NE,46,3.0,11.0,53,0.00,,,0.00,Wunderground v.1.15,2013-05-07 19:18:00,
2013-05-07 15:23:00,74.7,55.9,30.14,South,186,2.0,5.0,52,0.00,,,0.00,Wunderground v.1.15,2013-05-07 19:23:00,
2013-05-07 15:28:00,74.8,55.5,30.14,SW,215,3.0,11.0,51,0.00,,,0.00,Wunderground v.1.15,2013-05-07 19:28:00,
2013-05-07 15:33:00,74.6,54.7,30.14,WSW,247,6.0,10.0,50,0.00,,,0.00,Wunderground v.1.15,2013-05-07 19:33:00,
2013-05-07 15:38:00,75.0,56.2,30.14,SSE,163,4.0,10.0,52,0.00,,,0.00,Wunderground v.1.15,2013-05-07 19:38:00,
2013-05-07 15:43:00,74.9,57.1,30.14,South,174,5.0,10.0,54,0.00,,,0.00,Wunderground v.1.15,2013-05-07 19:43:00,
2013-05-07 15:48:00,74.8,56.5,30.14,SW,225,7.0,10.0,53,0.00,,,0.00,Wunderground v.1.15,2013-05-07 19:48:00,
2013-05-07 15:53:00,74.8,57.0,30.14,South,172,9.0,13.0,54,0.00,,,0.00,Wunderground v.1.15,2013-05-07 19:53:00,
2013-05-07 15:58:00,74.2,57.5,30.14,South,169,5.0,15.0,56,0.00,,,0.00,Wunderground v.1.15,2013-05-07 19:58:00,
2013-05-07 16:03:00,74.0,58.3,30.14,South,183,2.0,10.0,58,0.00,,,0.00,Wunderground v.1.15,2013-05-07 20:03:00,
2013-05-07 16:08:00,74.4,58.2,30.14,ESE,111,4.0,10.0,57,0.00,,,0.00,Wunderground v.1.15,2013-05-07 20:08:00,
2013-05-07 16:13:00,74.1,57.9,30.14,ESE,112,5.0,8.0,57,0.00,,,0.00,Wunderground v.1.15,2013-05-07 20:13:00,
2013-05-07 16:18:00,73.9,57.7,30.14,ESE,103,7.0,11.0,57,0.00,,,0.00,Wunderground v.1.15,2013-05-07 20:18:00,
2013-05-07 16:23:00,73.8,57.6,30.14,SSE,155,12.0,12.0,57,0.00,,,0.00,Wunderground v.1.15,2013-05-07 20:23:00,
2013-05-07 16:28:00,73.5,57.3,30.14,South,178,3.0,13.0,57,0.00,,,0.00,Wunderground v.1.15,2013-05-07 20:28:00,
2013-05-07 16:33:00,73.4,57.2,30.14,SSE,160,5.0,10.0,57,0.00,,,0.00,Wunderground v.1.15,2013-05-07 20:33:00,
2013-05-07 16:38:00,73.0,57.3,30.14,SW,234,5.0,13.0,58,0.00,,,0.00,Wunderground v.1.15,2013-05-07 20:38:00,
2013-05-07 16:44:00,72.9,56.8,30.14,SSE,161,5.0,12.0,57,0.00,,,0.00,Wunderground v.1.15,2013-05-07 20:44:00,
2013-05-07 16:49:00,72.9,57.3,30.14,South,169,3.0,12.0,58,0.00,,,0.00,Wunderground v.1.15,2013-05-07 20:49:00,
2013-05-07 16:54:00,72.8,57.2,30.14,SSE,161,4.0,8.0,58,0.00,,,0.00,Wunderground v.1.15,2013-05-07 20:54:00,
2013-05-07 16:59:00,72.4,56.8,30.14,SE,138,8.0,12.0,58,0.00,,,0.00,Wunderground v.1.15,2013-05-07 20:59:00,
2013-05-07 17:04:00,72.2,56.6,30.14,South,180,6.0,11.0,58,0.00,,,0.00,Wunderground v.1.15,2013-05-07 21:04:00,
2013-05-07 17:09:00,71.9,56.3,30.14,SSE,164,3.0,11.0,58,0.00,,,0.00,Wunderground v.1.15,2013-05-07 21:09:00,
2013-05-07 17:14:00,72.3,57.2,30.14,South,181,4.0,6.0,59,0.00,,,0.00,Wunderground v.1.15,2013-05-07 21:14:00,
2013-05-07 17:19:00,72.4,57.3,30.15,South,172,3.0,12.0,59,0.00,,,0.00,Wunderground v.1.15,2013-05-07 21:19:00,
2013-05-07 17:24:00,72.6,57.4,30.14,SW,223,2.0,8.0,59,0.00,,,0.00,Wunderground v.1.15,2013-05-07 21:24:00,
2013-05-07 17:29:00,72.6,57.4,30.14,SE,140,4.0,8.0,59,0.00,,,0.00,Wunderground v.1.15,2013-05-07 21:29:00,
2013-05-07 17:34:00,72.6,57.9,30.14,South,173,2.0,7.0,60,0.00,,,0.00,Wunderground v.1.15,2013-05-07 21:34:00,
2013-05-07 17:39:00,72.6,57.4,30.14,SSW,197,3.0,10.0,59,0.00,,,0.00,Wunderground v.1.15,2013-05-07 21:39:00,
2013-05-07 17:44:00,72.5,57.4,30.14,SSE,168,3.0,9.0,59,0.00,,,0.00,Wunderground v.1.15,2013-05-07 21:44:00,
2013-05-07 17:49:00,72.5,57.4,30.14,South,169,4.0,12.0,59,0.00,,,0.00,Wunderground v.1.15,2013-05-07 21:49:00,
2013-05-07 17:54:00,72.6,57.0,30.14,SE,136,8.0,11.0,58,0.00,,,0.00,Wunderground v.1.15,2013-05-07 21:54:00,
2013-05-07 17:59:00,72.6,57.4,30.14,SSE,167,3.0,11.0,59,0.00,,,0.00,Wunderground v.1.15,2013-05-07 21:59:00,
2013-05-07 18:04:00,72.5,57.4,30.14,SE,146,4.0,10.0,59,0.00,,,0.00,Wunderground v.1.15,2013-05-07 22:04:00,
2013-05-07 18:09:00,72.1,57.4,30.14,SE,141,4.0,10.0,60,0.00,,,0.00,Wunderground v.1.15,2013-05-07 22:09:00,
2013-05-07 18:14:00,72.0,57.8,30.14,SE,130,6.0,9.0,61,0.00,,,0.00,Wunderground v.1.15,2013-05-07 22:14:00,
2013-05-07 18:19:00,71.6,57.4,30.14,South,172,9.0,13.0,61,0.00,,,0.00,Wunderground v.1.15,2013-05-07 22:19:00,
2013-05-07 18:24:00,71.4,57.7,30.14,South,177,5.0,11.0,62,0.00,,,0.00,Wunderground v.1.15,2013-05-07 22:24:00,
2013-05-07 18:29:00,71.2,57.5,30.14,South,191,5.0,11.0,62,0.00,,,0.00,Wunderground v.1.15,2013-05-07 22:29:00,
2013-05-07 18:35:00,70.8,57.6,30.14,SSE,161,8.0,15.0,63,0.00,,,0.00,Wunderground v.1.15,2013-05-07 22:35:00,
2013-05-07 18:40:00,70.5,57.3,30.15,SSE,159,3.0,15.0,63,0.00,,,0.00,Wunderground v.1.15,2013-05-07 22:40:00,
2013-05-07 18:45:00,70.3,57.5,30.15,SSE,167,15.0,15.0,64,0.00,,,0.00,Wunderground v.1.15,2013-05-07 22:45:00,
2013-05-07 18:50:00,69.9,57.2,30.15,SSE,152,5.0,15.0,64,0.00,,,0.00,Wunderground v.1.15,2013-05-07 22:50:00,
2013-05-07 18:55:00,69.6,57.3,30.16,South,171,3.0,11.0,65,0.00,,,0.00,Wunderground v.1.15,2013-05-07 22:55:00,
2013-05-07 19:00:00,69.5,57.2,30.16,SE,143,5.0,11.0,65,0.00,,,0.00,Wunderground v.1.15,2013-05-07 23:00:00,
2013-05-07 19:05:00,69.3,57.0,30.16,South,169,6.0,10.0,65,0.00,,,0.00,Wunderground v.1.15,2013-05-07 23:05:00,
2013-05-07 19:10:00,69.0,57.2,30.16,South,190,4.0,11.0,66,0.00,,,0.00,Wunderground v.1.15,2013-05-07 23:10:00,
2013-05-07 19:15:00,68.8,57.0,30.16,SSE,165,3.0,11.0,66,0.00,,,0.00,Wunderground v.1.15,2013-05-07 23:15:00,
2013-05-07 19:20:00,68.6,56.8,30.17,South,173,0.0,11.0,66,0.00,,,0.00,Wunderground v.1.15,2013-05-07 23:20:00,
2013-05-07 19:25:00,68.4,57.0,30.17,SSE,168,3.0,6.0,67,0.00,,,0.00,Wunderground v.1.15,2013-05-07 23:25:00,
2013-05-07 19:30:00,68.1,56.3,30.17,South,182,7.0,8.0,66,0.00,,,0.00,Wunderground v.1.15,2013-05-07 23:30:00,
2013-05-07 19:35:00,67.9,56.1,30.17,South,180,4.0,10.0,66,0.00,,,0.00,Wunderground v.1.15,2013-05-07 23:35:00,
2013-05-07 19:40:00,67.7,55.5,30.17,SSW,205,3.0,10.0,65,0.00,,,0.00,Wunderground v.1.15,2013-05-07 23:40:00,
2013-05-07 19:45:00,67.5,55.3,30.18,SSE,161,5.0,7.0,65,0.00,,,0.00,Wunderground v.1.15,2013-05-07 23:45:00,
2013-05-07 19:50:00,67.3,55.1,30.18,SE,134,4.0,5.0,65,0.00,,,0.00,Wunderground v.1.15,2013-05-07 23:50:00,
2013-05-07 19:55:00,67.1,54.9,30.18,South,177,4.0,7.0,65,0.00,,,0.00,Wunderground v.1.15,2013-05-07 23:55:00,
2013-05-07 20:00:00,66.9,54.7,30.18,South,190,3.0,4.0,65,0.00,,,0.00,Wunderground v.1.15,2013-05-08 00:00:00,
2013-05-07 20:05:00,66.7,54.6,30.18,SSE,163,3.0,5.0,65,0.00,,,0.00,Wunderground v.1.15,2013-05-08 00:05:00,
2013-05-07 20:11:00,66.4,54.3,30.19,South,188,3.0,5.0,65,0.00,,,0.00,Wunderground v.1.15,2013-05-08 00:11:00,
2013-05-07 20:16:00,66.2,54.5,30.18,South,178,1.0,5.0,66,0.00,,,0.00,Wunderground v.1.15,2013-05-08 00:16:00,
2013-05-07 20:21:00,66.0,54.3,30.19,SSE,155,1.0,2.0,66,0.00,,,0.00,Wunderground v.1.15,2013-05-08 00:21:00,
2013-05-07 20:26:00,65.7,54.4,30.19,ESE,105,2.0,5.0,67,0.00,,,0.00,Wunderground v.1.15,2013-05-08 00:26:00,
2013-05-07 20:31:00,65.5,54.2,30.19,SSE,164,2.0,2.0,67,0.00,,,0.00,Wunderground v.1.15,2013-05-08 00:31:00,
2013-05-07 20:36:00,65.3,54.5,30.19,SSE,164,2.0,3.0,68,0.00,,,0.00,Wunderground v.1.15,2013-05-08 00:36:00,
2013-05-07 20:41:00,65.0,54.2,30.20,SSE,164,1.0,1.0,68,0.00,,,0.00,Wunderground v.1.15,2013-05-08 00:41:00,
2013-05-07 20:46:00,64.8,54.4,30.20,SSE,165,2.0,3.0,69,0.00,,,0.00,Wunderground v.1.15,2013-05-08 00:46:00,
2013-05-07 20:51:00,64.5,54.5,30.20,SSE,159,3.0,4.0,70,0.00,,,0.00,Wunderground v.1.15,2013-05-08 00:51:00,
2013-05-07 20:56:00,64.2,54.6,30.20,South,185,2.0,4.0,71,0.00,,,0.00,Wunderground v.1.15,2013-05-08 00:56:00,
2013-05-07 21:01:00,63.9,55.1,30.20,SSE,165,1.0,2.0,73,0.00,,,0.00,Wunderground v.1.15,2013-05-08 01:01:00,
2013-05-07 21:06:00,63.6,55.2,30.20,South,181,3.0,4.0,74,0.00,,,0.00,Wunderground v.1.15,2013-05-08 01:06:00,
2013-05-07 21:11:00,63.3,55.2,30.21,SE,143,1.0,2.0,75,0.00,,,0.00,Wunderground v.1.15,2013-05-08 01:11:00,
2013-05-07 21:16:00,63.0,55.3,30.21,SSE,159,0.0,6.0,76,0.00,,,0.00,Wunderground v.1.15,2013-05-08 01:16:00,
2013-05-07 21:21:00,62.7,55.4,30.21,SSE,167,2.0,3.0,77,0.00,,,0.00,Wunderground v.1.15,2013-05-08 01:21:00,
2013-05-07 21:26:00,62.4,55.4,30.21,SSE,168,4.0,4.0,78,0.00,,,0.00,Wunderground v.1.15,2013-05-08 01:26:00,
2013-05-07 21:31:00,62.2,55.3,30.22,SSE,161,1.0,2.0,78,0.00,,,0.00,Wunderground v.1.15,2013-05-08 01:31:00,
2013-05-07 21:36:00,62.0,55.4,30.22,SSE,163,1.0,3.0,79,0.00,,,0.00,Wunderground v.1.15,2013-05-08 01:36:00,
2013-05-07 21:41:00,61.8,55.2,30.22,South,169,0.0,1.0,79,0.00,,,0.00,Wunderground v.1.15,2013-05-08 01:41:00,
2013-05-07 21:46:00,61.6,55.4,30.22,South,169,2.0,4.0,80,0.00,,,0.00,Wunderground v.1.15,2013-05-08 01:46:00,
2013-05-07 21:51:00,61.3,55.1,30.22,South,169,1.0,3.0,80,0.00,,,0.00,Wunderground v.1.15,2013-05-08 01:51:00,
2013-05-07 21:56:00,61.1,55.2,30.22,South,169,0.0,3.0,81,0.00,,,0.00,Wunderground v.1.15,2013-05-08 01:56:00,
2013-05-07 22:01:00,60.9,55.0,30.22,South,169,0.0,1.0,81,0.00,,,0.00,Wunderground v.1.15,2013-05-08 02:01:00,
2013-05-07 22:06:00,60.8,54.9,30.22,SSE,167,2.0,3.0,81,0.00,,,0.00,Wunderground v.1.15,2013-05-08 02:06:00,
2013-05-07 22:11:00,60.6,55.1,30.22,South,182,3.0,3.0,82,0.00,,,0.00,Wunderground v.1.15,2013-05-08 02:11:00,
2013-05-07 22:16:00,60.5,55.0,30.22,South,181,2.0,4.0,82,0.00,,,0.00,Wunderground v.1.15,2013-05-08 02:16:00,
2013-05-07 22:21:00,60.3,54.8,30.22,South,181,2.0,2.0,82,0.00,,,0.00,Wunderground v.1.15,2013-05-08 02:21:00,
2013-05-07 22:26:00,60.2,54.7,30.22,South,181,0.0,2.0,82,0.00,,,0.00,Wunderground v.1.15,2013-05-08 02:26:00,
2013-05-07 22:31:00,60.0,54.5,30.22,South,181,0.0,2.0,82,0.00,,,0.00,Wunderground v.1.15,2013-05-08 02:31:00,
2013-05-07 22:36:00,59.8,54.6,30.22,South,181,3.0,3.0,83,0.00,,,0.00,Wunderground v.1.15,2013-05-08 02:36:00,
2013-05-07 22:42:00,59.5,54.3,30.22,South,181,0.0,1.0,83,0.00,,,0.00,Wunderground v.1.15,2013-05-08 02:42:00,
2013-05-07 22:47:00,59.3,54.1,30.22,South,181,0.0,1.0,83,0.00,,,0.00,Wunderground v.1.15,2013-05-08 02:47:00,
2013-05-07 22:52:00,59.1,54.3,30.22,South,181,1.0,1.0,84,0.00,,,0.00,Wunderground v.1.15,2013-05-08 02:52:00,
2013-05-07 22:57:00,58.9,54.1,30.22,South,181,1.0,2.0,84,0.00,,,0.00,Wunderground v.1.15,2013-05-08 02:57:00,
2013-05-07 23:02:00,58.8,54.0,30.22,South,181,0.0,1.0,84,0.00,,,0.00,Wunderground v.1.15,2013-05-08 03:02:00,
2013-05-07 23:07:00,58.7,53.9,30.22,South,181,1.0,2.0,84,0.00,,,0.00,Wunderground v.1.15,2013-05-08 03:07:00,
2013-05-07 23:12:00,58.6,54.1,30.22,South,181,1.0,2.0,85,0.00,,,0.00,Wunderground v.1.15,2013-05-08 03:12:00,
2013-05-07 23:17:00,58.3,53.8,30.22,South,181,1.0,2.0,85,0.00,,,0.00,Wunderground v.1.15,2013-05-08 03:17:00,
2013-05-07 23:22:00,58.1,53.6,30.22,South,181,0.0,1.0,85,0.00,,,0.00,Wunderground v.1.15,2013-05-08 03:22:00,
2013-05-07 23:27:00,57.8,53.3,30.22,South,181,0.0,1.0,85,0.00,,,0.00,Wunderground v.1.15,2013-05-08 03:27:00,
2013-05-07 23:32:00,57.6,53.1,30.23,South,181,1.0,1.0,85,0.00,,,0.00,Wunderground v.1.15,2013-05-08 03:32:00,
2013-05-07 23:37:00,57.4,53.2,30.23,South,181,1.0,1.0,86,0.00,,,0.00,Wunderground v.1.15,2013-05-08 03:37:00,
2013-05-07 23:40:00,56.8,52.7,30.23,South,181,1.0,1.0,86,0.00,,,0.00,Wunderground v.1.15,2013-05-08 03:40:00,
2013-05-07 23:41:00,56.8,52.7,30.23,South,181,0.0,1.0,86,0.00,,,0.00,Wunderground v.1.15,2013-05-08 03:41:00,
2013-05-07 23:42:00,57.3,53.1,30.23,South,181,0.0,0.0,86,0.00,,,0.00,Wunderground v.1.15,2013-05-08 03:42:00,
2013-05-07 23:43:00,56.8,52.7,30.23,South,181,0.0,1.0,86,0.00,,,0.00,Wunderground v.1.15,2013-05-08 03:43:00,
2013-05-07 23:44:00,56.8,52.7,30.23,South,181,0.0,1.0,86,0.00,,,0.00,Wunderground v.1.15,2013-05-08 03:44:00,
2013-05-07 23:45:00,56.7,52.9,30.23,South,181,0.0,1.0,87,0.00,,,0.00,Wunderground v.1.15,2013-05-08 03:45:00,
2013-05-07 23:46:00,56.7,52.9,30.23,South,181,0.0,1.0,87,0.00,,,0.00,Wunderground v.1.15,2013-05-08 03:46:00,
2013-05-07 23:47:00,57.1,53.0,30.23,South,181,0.0,1.0,86,0.00,,,0.00,Wunderground v.1.15,2013-05-08 03:47:00,
2013-05-07 23:48:00,56.6,52.8,30.23,South,181,0.0,1.0,87,0.00,,,0.00,Wunderground v.1.15,2013-05-08 03:48:00,
2013-05-07 23:49:00,56.6,52.8,30.23,South,181,0.0,1.0,87,0.00,,,0.00,Wunderground v.1.15,2013-05-08 03:49:00,
2013-05-07 23:52:00,57.0,52.9,30.23,South,181,0.0,2.0,86,0.00,,,0.00,Wunderground v.1.15,2013-05-08 03:52:00,
2013-05-07 23:57:00,56.9,52.8,30.23,South,181,0.0,2.0,86,0.00,,,0.00,Wunderground v.1.15,2013-05-08 03:57:00,